SV4RJB-13 Weather Reports


Display with metric or nautical units.
time (UTC)temp
F
wind
direction
speed
MPH
gust
MPH
rain 1hr
in
rain 24hr
in
rain mn
in
humidity
%
barometer
mb
20260906064913 81 0.0 0.0 0.00 0.00 0.00 42 1006.6
20260906063912 82 0.0 0.0 0.00 0.00 0.00 42 1006.5
20260906062913 81 0.0 0.0 0.00 0.00 0.00 42 1006.4
20260906061911 84 0.0 0.0 0.00 0.00 0.00 38 1006.2
20260906055913 88 0.0 0.0 0.00 0.00 0.00 36 1006.0
20260906054912 83 0.0 0.0 0.00 0.00 0.00 40 1005.9
20260906052911 78 0.0 0.0 0.00 0.00 0.00 48 1006.0
20260906050912 73 0.0 0.0 0.00 0.00 0.00 56 1006.0
20260906045913 72 0.0 0.0 0.00 0.00 0.00 55 1005.9
20260906044913 71 0.0 0.0 0.00 0.00 0.00 55 1005.8
20260906043913 71 0.0 0.0 0.00 0.00 0.00 57 1005.6
20260906042913 69 0.0 0.0 0.00 0.00 0.00 60 1005.6
20260906041912 69 0.0 0.0 0.00 0.00 0.00 60 1005.5
20260906040912 69 0.0 0.0 0.00 0.00 0.00 60 1005.3
20260906035912 71 0.0 0.0 0.00 0.00 0.00 57 1005.3
20260906034912 72 0.0 0.0 0.00 0.00 0.00 55 1005.3
20260906033912 71 0.0 0.0 0.00 0.00 0.00 56 1005.1
20260906031912 74 0.0 0.0 0.00 0.00 0.00 52 1005.2
20260906030911 74 0.0 0.0 0.00 0.00 0.00 52 1005.1
20260906024911 73 0.0 0.0 0.00 0.00 0.00 54 1005.0
20260906022913 70 0.0 0.0 0.00 0.00 0.00 57 1004.8
20260906021912 71 0.0 0.0 0.00 0.00 0.00 58 1004.9
20260906015912 71 0.0 0.0 0.00 0.00 0.00 57 1005.0
20260906014913 72 0.0 0.0 0.00 0.00 0.00 56 1004.9
20260906013912 73 0.0 0.0 0.00 0.00 0.00 53 1004.8
20260906011912 73 0.0 0.0 0.00 0.00 0.00 53 1004.8
20260906010912 74 0.0 0.0 0.00 0.00 0.00 54 1004.9
20260906005912 74 0.0 0.0 0.00 0.00 0.00 53 1004.9
20260906004912 72 0.0 0.0 0.00 0.00 0.00 55 1004.9
20260906003913 72 0.0 0.0 0.00 0.00 0.00 58 1004.8
20260906002912 73 0.0 0.0 0.00 0.00 0.00 55 1004.8
20260906001912 77 0.0 0.0 0.00 0.00 0.00 49 1005.0
20260905235912 76 0.0 0.0 0.00 0.00 0.00 52 1005.0
20260905234912 76 0.0 0.0 0.00 0.00 0.00 52 1005.0
20260905233912 75 0.0 0.0 0.00 0.00 0.00 53 1005.0
20260905232912 75 0.0 0.0 0.00 0.00 0.00 52 1004.0
20260905231913 73 0.0 0.0 0.00 0.00 0.00 56 1005.0
20260905230912 78 0.0 0.0 0.00 0.00 0.00 51 1005.1
20260905225912 75 0.0 0.0 0.00 0.00 0.00 55 1005.2
20260905224912 75 0.0 0.0 0.00 0.00 0.00 55 1005.1
20260905223912 74 0.0 0.0 0.00 0.00 0.00 57 1005.1
20260905222914 75 0.0 0.0 0.00 0.00 0.00 55 1005.0
20260905221914 78 0.0 0.0 0.00 0.00 0.00 49 1005.1
20260905220913 79 0.0 0.0 0.00 0.00 0.00 48 1005.2
20260905215913 79 0.0 0.0 0.00 0.00 0.00 48 1005.2
20260905214912 78 0.0 0.0 0.00 0.00 0.00 48 1005.2
20260905213913 77 0.0 0.0 0.00 0.00 0.00 51 1005.2
20260905212912 77 0.0 0.0 0.00 0.00 0.00 51 1005.3
20260905211912 77 0.0 0.0 0.00 0.00 0.00 51 1005.2
20260905210912 81 0.0 0.0 0.00 0.00 0.00 46 1005.1
20260905205913 79 0.0 0.0 0.00 0.00 0.00 48 1005.1
20260905204912 77 0.0 0.0 0.00 0.00 0.00 50 1005.0
20260905203911 76 0.0 0.0 0.00 0.00 0.00 51 1005.1
20260905202912 77 0.0 0.0 0.00 0.00 0.00 50 1005.1
20260905201913 78 0.0 0.0 0.00 0.00 0.00 47 1005.0
20260905200913 78 0.0 0.0 0.00 0.00 0.00 44 1004.3
20260905195912 80 0.0 0.0 0.00 0.00 0.00 43 1005.1
20260905194913 82 0.0 0.0 0.00 0.00 0.00 41 1004.9
20260905193912 82 0.0 0.0 0.00 0.00 0.00 41 1005.1
20260905192912 81 0.0 0.0 0.00 0.00 0.00 40 1004.9
20260905191913 82 0.0 0.0 0.00 0.00 0.00 40 1004.9
20260905190913 81 0.0 0.0 0.00 0.00 0.00 42 1004.9
20260905185912 81 0.0 0.0 0.00 0.00 0.00 43 1004.9
20260905183913 82 0.0 0.0 0.00 0.00 0.00 41 1004.6
20260905182912 83 0.0 0.0 0.00 0.00 0.00 42 1004.4
20260905181912 83 0.0 0.0 0.00 0.00 0.00 41 1004.5
20260905180913 84 0.0 0.0 0.00 0.00 0.00 40 1004.1
20260905175912 85 0.0 0.0 0.00 0.00 0.00 38 1004.1
20260905173912 87 0.0 0.0 0.00 0.00 0.00 36 1003.7
20260905172911 87 0.0 0.0 0.00 0.00 0.00 36 1003.6
20260905170912 88 0.0 0.0 0.00 0.00 0.00 31 1003.3
20260905165912 89 0.0 0.0 0.00 0.00 0.00 32 1003.3
20260905164912 89 0.0 0.0 0.00 0.00 0.00 32 1003.3
20260905162913 90 0.0 0.0 0.00 0.00 0.00 31 1003.3
20260905161914 90 0.0 0.0 0.00 0.00 0.00 30 1003.2
20260905160914 90 0.0 0.0 0.00 0.00 0.00 29 1003.3
20260905155914 90 0.0 0.0 0.00 0.00 0.00 29 1003.4
20260905154913 91 0.0 0.0 0.00 0.00 0.00 28 1003.4
20260905153912 91 0.0 0.0 0.00 0.00 0.00 27 1003.4
20260905150913 91 0.0 0.0 0.00 0.00 0.00 27 1003.5
20260905145912 91 0.0 0.0 0.00 0.00 0.00 27 1003.5
20260905143912 91 0.0 0.0 0.00 0.00 0.00 27 1003.5
20260905142913 92 0.0 0.0 0.00 0.00 0.00 27 1003.5
20260905141914 92 0.0 0.0 0.00 0.00 0.00 27 1003.6
20260905140913 92 0.0 0.0 0.00 0.00 0.00 27 1003.7
20260905135913 92 0.0 0.0 0.00 0.00 0.00 27 1003.8
20260905134913 93 0.0 0.0 0.00 0.00 0.00 26 1003.9
20260905133913 93 0.0 0.0 0.00 0.00 0.00 26 1004.1
20260905132914 94 0.0 0.0 0.00 0.00 0.00 26 1004.2
20260905131912 95 0.0 0.0 0.00 0.00 0.00 25 1004.3
20260905125913 94 0.0 0.0 0.00 0.00 0.00 26 1004.5
20260905124912 93 0.0 0.0 0.00 0.00 0.00 26 1004.5
20260905122913 95 0.0 0.0 0.00 0.00 0.00 24 1004.8
20260905121913 94 0.0 0.0 0.00 0.00 0.00 25 1005.0
20260905120913 95 0.0 0.0 0.00 0.00 0.00 25 1005.3
20260905115912 95 0.0 0.0 0.00 0.00 0.00 25 1005.3
20260905114912 94 0.0 0.0 0.00 0.00 0.00 25 1005.4
20260905113911 94 0.0 0.0 0.00 0.00 0.00 25 1005.6
20260905111912 92 0.0 0.0 0.00 0.00 0.00 27 1005.7
20260905110913 92 0.0 0.0 0.00 0.00 0.00 27 1005.6
20260905105913 93 0.0 0.0 0.00 0.00 0.00 27 1005.7
20260905104912 96 0.0 0.0 0.00 0.00 0.00 26 1005.9
20260905102912 93 0.0 0.0 0.00 0.00 0.00 29 1006.0
20260905101912 93 0.0 0.0 0.00 0.00 0.00 28 1006.2
20260905100913 93 0.0 0.0 0.00 0.00 0.00 28 1006.4
20260905095912 95 0.0 0.0 0.00 0.00 0.00 27 1006.4
20260905094912 98 0.0 0.0 0.00 0.00 0.00 25 1006.5
20260905093913 97 0.0 0.0 0.00 0.00 0.00 26 1006.6
20260905092913 95 0.0 0.0 0.00 0.00 0.00 28 1006.7
20260905091912 94 0.0 0.0 0.00 0.00 0.00 29 1006.6
20260905090912 95 0.0 0.0 0.00 0.00 0.00 29 1006.4
20260905085913 97 0.0 0.0 0.00 0.00 0.00 27 1007.0
20260905084913 97 0.0 0.0 0.00 0.00 0.00 28 1006.9
20260905083912 96 0.0 0.0 0.00 0.00 0.00 27 1007.1
20260905082913 91 0.0 0.0 0.00 0.00 0.00 31 1007.3
20260905081913 95 0.0 0.0 0.00 0.00 0.00 30 1007.3
20260905080912 92 0.0 0.0 0.00 0.00 0.00 31 1007.3
20260905075913 93 0.0 0.0 0.00 0.00 0.00 30 1007.3
20260905074912 87 0.0 0.0 0.00 0.00 0.00 34 1007.3
20260905073912 90 0.0 0.0 0.00 0.00 0.00 33 1007.2
20260905072911 90 0.0 0.0 0.00 0.00 0.00 33 1007.2
20260905070912 86 0.0 0.0 0.00 0.00 0.00 36 1007.2
20260905065912 89 0.0 0.0 0.00 0.00 0.00 36 1007.3